Location: Newark
(25.0000°N, 73.5000°E)
Time: 12:14:11
(UTC+00:00)

Altair - Pass Details

Date: 07 March 2021
Orbit: 1501 x 1683 km, 47.2° (Epoch: 15 April)

Event Time Altitude Azimuth Distance (km) Brightness Sun altitude
Rises 13:14:20 0° 263° (W) 4,627 13.9 -1.5°
Reaches altitude 10° 13:17:51 10° 274° (W) 3,646 11.5 -2.3°
Maximum altitude 13:25:39 31° 333° (NNW) 2,422 8.9 -4.1°
Drops below altitude 10° 13:33:37 10° 32° (NNE) 3,708 9.2 -5.9°
Sets 13:37:16 0° 43° (NE) 4,716 9.6 -6.7°
